User: anonymous   Login
Location: Unspecified
(0.0000°N, 0.0000°E)
Time: 01:51:28
(UTC+00:00)
Language:

Vela 3A - Orbit

View from above orbital plane
View from above orbital plane
View from above satellite
View from above satellite

Ground track
Ground track

The orbit data is extracted from the following two-line orbital elements,

1 01458U 65058A   15243.31643734 -.00001146  00000-0  00000+0 0  9990
2 01458 023.1317 011.0846 5122414 197.9992 358.5827 00.21464935 77772
Epoch (UTC): 31 August 2015 07:35:40
Eccentricity: 0.5122414
inclination: 23.1317°
perigee height: 51093 km
apogee height: 171804 km
right ascension of ascending node: 11.0846°
argument of perigee: 197.9992°
revolutions per day: 0.21464935
mean anomaly at epoch: 358.5827°
orbit number at epoch: 7777

The dashed part of the orbit path shows where the satellite is in the earth's shadow,  

DLR